Antwerp, Belgium

9:12 AM CET on February 20, 2018 (GMT +0100)
Deurne

Weather History for EBAW - November, 2013

Change the Weather History Date:

Monday, November 18, 2013

  Actual Average Record
Temperature  
Mean Temperature 42 °F -  
Max Temperature 44 °F 44 °F 58 °F (2015)
Min Temperature 39 °F 36 °F 26 °F (1998)
Degree Days  
Heating Degree Days 24    
Moisture  
Dew Point 37 °F    
Average Humidity 84    
Maximum Humidity 93    
Minimum Humidity 68    
Precipitation  
Precipitation 0.00 in - - ()
Sea Level Pressure  
Sea Level Pressure 29.88 in    
Wind  
Wind Speed 4 mph ()    
Max Wind Speed 10 mph    
Max Gust Speed -    
Visibility 3.4 miles    
Events      
Averages and records for this station are not official NWS values.
T = Trace of Precipitation, MM = Missing Value Source: Averaged Metar Reports

Daily Weather History Graph

Daily Weather History Graph

Search for Another Location

Airport or City:

Trip Planner

Search our weather history database for the weather conditions in past years. The results will help you decide how hot, cold, wet, or windy it might be!

Date:

Astronomy

Nov. 18, 2013 Rise Set
Actual Time 8:04 AM CET 4:49 PM CET
Civil Twilight 7:27 AM CET 5:26 PM CET
Nautical Twilight 6:46 AM CET 6:07 PM CET
Astronomical Twilight 6:07 AM CET 6:46 PM CET
Moon 5:38 PM CET (11/18) 8:39 AM CET (11/18)
Length of Visible Light 9h 59m
Length of Day
8h 45m
Full, 99% of the Moon is Illuminated
Nov 18
Full
Nov 25
Last Quarter
Dec 3
New
Dec 9
First Quarter
Dec 17
Full

Hourly Weather History & Observations

Time (CET) Temp. Windchill Dew Point Humidity Pressure Visibility Wind Dir Wind Speed Gust Speed Precip Events Conditions
12:20 AM 39.2 °F 37.0 °F 37.4 °F 93% 30.06 in - ESE 3.5 mph - N/A   Mostly Cloudy
12:50 AM 39.2 °F 37.0 °F 37.4 °F 93% 30.04 in 1.7 mi East 3.5 mph - N/A   Overcast
1:00 AM 39 °F - 38 °F 92% 30.06 in 2 mi East 2.2 mph - -   Mist
1:20 AM 39.2 °F 37.0 °F 37.4 °F 93% 30.04 in 1.9 mi ESE 3.5 mph - N/A   Overcast
1:50 AM 39.2 °F - 37.4 °F 93% 30.01 in 1.8 mi Variable 1.2 mph - N/A   Mostly Cloudy
2:20 AM 39.2 °F 37.0 °F 37.4 °F 93% 30.01 in - SE 3.5 mph - N/A   Overcast
2:50 AM 39.2 °F 35.9 °F 37.4 °F 93% 30.01 in - SE 4.6 mph - N/A   Overcast
3:20 AM 39.2 °F 35.9 °F 37.4 °F 93% 29.98 in - SSE 4.6 mph - N/A   Mostly Cloudy
3:50 AM 39.2 °F 37.0 °F 37.4 °F 93% 29.98 in - SSE 3.5 mph - N/A   Overcast
4:00 AM 39 °F - 37 °F 91% 29.98 in 2 mi SSE 4.5 mph - -   Mist
4:20 AM 39.2 °F 37.0 °F 37.4 °F 93% 29.95 in - SSE 3.5 mph - N/A   Overcast
4:50 AM 39.2 °F - 37.4 °F 93% 29.95 in 2.2 mi SSE 2.3 mph - N/A   Overcast
5:20 AM 39.2 °F - 37.4 °F 93% 29.95 in - SSE 2.3 mph - N/A   Overcast
5:50 AM 39.2 °F - 37.4 °F 93% 29.92 in - SE 2.3 mph - N/A   Mostly Cloudy
6:20 AM 39.2 °F - 37.4 °F 93% 29.92 in 2.2 mi Variable 1.2 mph - N/A   Mostly Cloudy
6:50 AM 39.2 °F - 37.4 °F 93% 29.92 in 2.8 mi Variable 1.2 mph - N/A   Mostly Cloudy
7:00 AM 40 °F - 38 °F 89% 29.92 in 3 mi Calm Calm - -   Mist
7:20 AM 41.0 °F - 37.4 °F 87% 29.89 in 2.8 mi Variable 2.3 mph - N/A   Mostly Cloudy
7:50 AM 41.0 °F - 37.4 °F 87% 29.89 in 2.8 mi SW 2.3 mph - N/A   Mostly Cloudy
8:20 AM 41.0 °F 38.0 °F 37.4 °F 87% 29.89 in 2.8 mi SW 4.6 mph - N/A   Mostly Cloudy
8:50 AM 41.0 °F 38.0 °F 37.4 °F 87% 29.89 in 2.8 mi SW 4.6 mph - N/A   Mostly Cloudy
9:20 AM 41.0 °F 38.0 °F 37.4 °F 87% 29.89 in 2.8 mi SW 4.6 mph - N/A   Mostly Cloudy
9:50 AM 41.0 °F 37.1 °F 37.4 °F 87% 29.89 in 2.8 mi SW 5.8 mph - N/A   Mostly Cloudy
10:00 AM 42 °F - 38 °F 81% 29.89 in 3 mi SW 6.7 mph - -   Mist
10:20 AM 42.8 °F 40.1 °F 39.2 °F 87% 29.89 in 2.5 mi SW 4.6 mph - N/A   Mostly Cloudy
10:50 AM 42.8 °F 38.6 °F 39.2 °F 87% 29.89 in 2.5 mi SW 6.9 mph - N/A   Mostly Cloudy
11:20 AM 42.8 °F 38.6 °F 37.4 °F 81% 29.86 in 2.8 mi SW 6.9 mph - N/A   Mostly Cloudy
11:50 AM 42.8 °F 38.6 °F 37.4 °F 81% 29.86 in - SW 6.9 mph - N/A   Mostly Cloudy
12:20 PM 42.8 °F 38.0 °F 37.4 °F 81% 29.86 in - SW 8.1 mph - N/A   Mostly Cloudy
12:50 PM 42.8 °F 38.6 °F 37.4 °F 81% 29.86 in - SW 6.9 mph - N/A   Haze
1:00 PM 43 °F - 37 °F 73% 29.86 in 3 mi SW 6.7 mph - -   Haze
1:20 PM 44.6 °F 39.7 °F 37.4 °F 76% 29.83 in 3.7 mi SW 9.2 mph - N/A   Mostly Cloudy
1:50 PM 44.6 °F 40.2 °F 37.4 °F 76% 29.83 in 3.7 mi SW 8.1 mph - N/A   Mostly Cloudy
2:20 PM 44.6 °F 40.2 °F 35.6 °F 71% 29.83 in 3.7 mi SW 8.1 mph - N/A   Mostly Cloudy
2:50 PM 44.6 °F 40.7 °F 35.6 °F 71% 29.83 in 4.3 mi SW 6.9 mph - N/A   Mostly Cloudy
3:20 PM 44.6 °F 41.4 °F 37.4 °F 76% 29.80 in 4.3 mi SSW 5.8 mph - N/A   Mostly Cloudy
3:50 PM 44.6 °F 40.7 °F 37.4 °F 76% 29.80 in 4.3 mi SSW 6.9 mph - N/A   Mostly Cloudy
4:00 PM 44 °F - 37 °F 68% 29.81 in 4 mi SSW 6.7 mph - -   Mostly Cloudy
4:20 PM 42.8 °F 38.6 °F 37.4 °F 81% 29.80 in 3.7 mi SSW 6.9 mph - N/A   Mostly Cloudy
4:50 PM 42.8 °F 38.6 °F 37.4 °F 81% 29.80 in 3.7 mi SSW 6.9 mph - N/A   Mostly Cloudy
5:20 PM 42.8 °F 37.5 °F 37.4 °F 81% 29.80 in 3.7 mi SSW 9.2 mph - N/A   Mostly Cloudy
5:50 PM 42.8 °F 38.6 °F 37.4 °F 81% 29.80 in 3.7 mi SW 6.9 mph - N/A   Mostly Cloudy
6:20 PM 42.8 °F 37.5 °F 37.4 °F 81% 29.80 in 4.3 mi SSW 9.2 mph - N/A   Mostly Cloudy
6:50 PM 41.0 °F 35.2 °F 35.6 °F 81% 29.80 in 4.3 mi SSW 9.2 mph - N/A   Mostly Cloudy
7:00 PM 42 °F - 36 °F 74% 29.83 in 4 mi SSW 8.9 mph - -   Mostly Cloudy
7:20 PM 41.0 °F 34.7 °F 35.6 °F 81% 29.83 in 4.3 mi SSW 10.4 mph - N/A   Mostly Cloudy
7:50 PM 41.0 °F 34.7 °F 35.6 °F 81% 29.80 in 4.3 mi SSW 10.4 mph - N/A   Mostly Cloudy
8:20 PM 41.0 °F 35.8 °F 35.6 °F 81% 29.80 in 4.3 mi SSW 8.1 mph - N/A   Mostly Cloudy
8:50 PM 41.0 °F 35.2 °F 33.8 °F 76% 29.80 in 4.3 mi SW 9.2 mph - N/A   Mostly Cloudy
9:20 PM 41.0 °F 36.4 °F 33.8 °F 76% 29.80 in 4.3 mi SW 6.9 mph - N/A   Mostly Cloudy
9:50 PM 41.0 °F 36.4 °F 33.8 °F 76% 29.80 in 4.3 mi SW 6.9 mph - N/A   Mostly Cloudy
10:00 PM 41 °F - 35 °F 71% 29.81 in 4 mi SW 6.7 mph - -   Overcast
10:20 PM 41.0 °F 36.4 °F 35.6 °F 81% 29.77 in 4.3 mi SW 6.9 mph - N/A   Overcast
10:50 PM 41.0 °F 36.4 °F 33.8 °F 76% 29.77 in 4.3 mi SW 6.9 mph - N/A   Overcast
11:20 PM 41.0 °F 36.4 °F 33.8 °F 76% 29.77 in 4.3 mi SSW 6.9 mph - N/A   Overcast
11:50 PM 41.0 °F 36.4 °F 35.6 °F 81% 29.77 in 4.3 mi SSW 6.9 mph - N/A   Overcast